Location: Bernadets
(43.3537°N, 0.3167°E)
Time: 03:33:00
(UTC+00:00)

Okean-O - Pass Details

Date: 24 October 2021
Orbit: 638 x 640 km, 98.2° (Epoch: 27 November)

Event Time Altitude Azimuth Distance (km) Brightness Sun altitude
Exits shadow 18:02:48 17° 79° (E) 1,632 4.1 -11.8°
Maximum altitude 18:03:43 18° 63° (ENE) 1,583 4.1 -12.0°
Drops below altitude 10° 18:06:40 10° 21° (NNE) 2,041 5.0 -12.5°
Sets 18:09:28 0° 3° (N) 2,955 6.0 -13.0°
